events-overview

Race the Bar 5K Presented by Senn Dunn Insurance - Series Race #2

 

Overall Men

Lindley Park Filling Station & Sticks and Stones - Greensboro, NC 5/18/2013 03:00PM

** Results are for the private use of participants and are the Intellectual Property of Set Up Events. Unauthorized use of these results is prohibited.

Place Bib S Age Name City/State Time Pace DQ
1174M17Luke SumerfordNo City Given00:17:2400:05:36 
234M29Matthew DugginsJamestown NC00:20:5000:06:43 
3190M39Dragon GaydonJamestown NC00:20:5300:06:44 
4421M39John DeweyGreensboro NC00:21:0200:06:47 
583M25Mahan LeviAsheboro NC00:21:0800:06:49 
6193M42Dan PhillipsGreensboro NC00:21:3300:06:57 
7182M39Michael RainesWinston-Salem NC00:21:5100:07:02 
8391M23Alan MitchellGreensboro NC00:21:5700:07:04 
954M20Evan HarrisonSophia NC00:22:3800:07:17 
10135M36Andrew TappGreensboro NC00:22:4300:07:19 
11179M48Bo GeigerOak Ridge NC00:23:0200:07:25 
1264M39Jason TolbertAsheboro NC00:23:0500:07:26 
13191M44James McSawleyWinston-Salem NC00:23:3700:07:37 
1428M60Eddie DayEast Bend NC00:23:5100:07:41 
15184M41Douglas GaydonLiberty NC00:24:0300:07:45 
16400M32Brennan O'BrienClimax NC00:24:0800:07:46 
17133M28Jimmy StewartSophia NC00:24:1400:07:48 
18158M31Miles BrownGreensboro NC00:24:3200:07:54 
19117M40Gregg PrinzoGreensboro NC00:24:5000:08:00 
20399M32Lucas FaukconnGreensboro NC00:24:5100:08:00 
2178M42Geoffrey LamkeWinston Salem NC00:24:5700:08:02 
22144M33Benjamin VanoverRandleman NC00:24:5700:08:02 
23125M47Greg SheppardGreensboro NC00:25:0600:08:05 
24180M42Andy McAfeeGreensboro NC00:25:4500:08:17 
25113M53Andy PhelpsJamestown NC00:26:1100:08:26 
26390M21Mark MitchellGreensboro NC00:26:1200:08:26 
2753M29Clinton HarrisonRandleman NC00:26:1800:08:28 
28124M29Sean ShanahanHigh Point NC00:26:2400:08:30 
29423M12Christian DeyohnNo City Given00:26:3000:08:32 
30380M52Tim FlemingGreensboro NC00:26:3700:08:34 
PlaceBibSAgeNameCity/StateTimePaceDQ
31157M24Taylor ZacharGreensboro NC00:26:4800:08:38 
3250M43Chris GosselinAsheboro NC00:26:4800:08:38 
33198M55Greg RobinsonAsheboro NC00:26:5300:08:40 
34156M27Doug WinnWinston Salem NC00:27:0500:08:43 
35177M31Chris BrowningGreensboro NC00:27:3400:08:53 
3610M45Keith AyscueGreensboro NC00:27:3600:08:53 
37109M25Ben PageGreensboro NC00:27:5700:09:00 
3849M38Jason GoodmanGreensboro NC00:28:4200:09:15 
3973M30Greg KarpinskiGreensboro NC00:29:1200:09:24 
40403M41Pc RomanoNo City Given00:29:5000:09:36 
41189M13Ryan GaydenJameston NC00:30:3300:09:50 
42309M52Johnny RedwineKernersville NC00:30:3500:09:51 
4327M50Kennedy DavidClemmons NC00:30:3800:09:52 
44111M49John PannellBurlington NC00:31:1300:10:03 
45146M34Jason WarnerHuntersville NC00:31:2600:10:07 
4656M68Skip HaydenFairfield CT00:31:5200:10:16 
4742M27Jonathan FranklinNew Bern NC00:31:5300:10:16 
4892M31Daniel McCoyGreensboro NC00:32:1700:10:24 
49416M11Jacob HossNo City Given00:32:2100:10:25 
5059M31Matt HruslinskiBurlington NC00:32:3100:10:28 
51183M35Coby WesleyNo City Given00:32:3100:10:28 
52140M54Thomas Keith BlackGreensboro NC00:32:4400:10:33 
53176M44Mark HermanCharlotte NC00:32:4500:10:33 
54137M56Preston TaylorHamptonviille NC00:33:0500:10:39 
55186M11Jackson GaydonLiberty NC00:33:1400:10:42 
5695M37Ryan McHenryGreensboro NC00:33:3100:10:48 
5713M49Ken BoatmanGreensboro NC00:33:4800:10:53 
58185M37Charles FarrowGreensboro NC00:33:5000:10:54 
59417M11Sam HossNo City Given00:34:0300:10:58 
60106M32Max NewbauerGibsonville NC00:34:1000:11:00 
6158M30Matthew HoganGreensboro NC00:34:1200:11:01 
PlaceBibSAgeNameCity/StateTimePaceDQ
62147M46Barry WarrenGreensboro NC00:34:2900:11:06 
63197M24Ebbie YazdaniWinston-Salem NC00:34:3000:11:07 
6462M53Bryan JamesGreensboro NC00:34:3200:11:07 
65175M29Andrew ZacharHigh Point NC00:34:4800:11:12 
6651M60Bruce GuariniSummefield NC00:35:1700:11:22 
6725M41Michael CunninghamGraham NC00:35:2300:11:24 
68413M8Andrew DoverNo City Given00:35:2900:11:26 
69409M49Gavin ReardonGreensboro NC00:35:3200:11:27 
70142M51Tom RogowskiGreensboro NC00:35:4900:11:32 
7144M36George MeisterGreensboro NC00:35:5400:11:34 
72406M39Tim WhelanGreensboro NC00:35:5700:11:35 
73153M29Chad WilliamsenGreensboro NC00:36:0400:11:37 
74152M8Will StoffelHigh Point NC00:36:1000:11:39 
7517M40Rob BromleyBurlington NC00:36:1900:11:42 
7687M34Philip MahoneyJamestown NC00:36:3500:11:47 
77424M41Thomas DejohnGreenboro NC00:36:5400:11:53 
78419M6Brigden HayesNo City Given00:37:1200:11:59 
79188M52Shaukat KhanBurlington NC00:37:3900:12:07 
80132M41Steven BlackGreensboro NC00:38:1100:12:18 
81195M38Jason CarterNo City Given00:39:1900:12:40 
82396M42Karl HortonGreensboro NC00:39:2600:12:42 
83172M51Dennis VassReidsville NC00:39:3200:12:44 
8482M47Dave LaycockKernersville NC00:41:1300:13:16 
85121M60Scott SandiferWinston-Salem NC00:41:1700:13:18 
86148M13Griffin WarrenGreensboro NC00:41:2700:13:21 
87187M7Britain GaydonLiberty NC00:41:4700:13:27 
88116M48Jamey PressonGreensboro NC00:42:3400:13:43 
8957M75John HaydockGreensboro NC00:43:5400:14:08 
9069M34Jonathan RaymerGreensboro NC00:45:2600:14:38 
9184M52Paul LindenGreensboro NC00:48:2400:15:35 
92120M46Ron StoffelHigh Point NC00:48:4400:15:42 
PlaceBibSAgeNameCity/StateTimePaceDQ
93141M69Tom FincannonGreensboro NC00:51:4000:16:38 
94139M50Tim TempletonGreensboro NC00:53:2800:17:13 
9590M68Marvin BareGreensboro NC01:00:3700:19:31 

** Results are for the private use of participants and are the Intellectual Property of Set Up Events. Unauthorized use of these results is prohibited.